Wind_Speed
55 54 54 55 54 54 54 54 54 53 51 50 51 51 50 50 49 49 47 47 46 44 43 43 43 43 42 41 41 41 40 40 39 38 37 36 36 35
56 56 56 56 56 55 54 54 54 53 53 52 52 52 52 52 51 50 48 48 46 44 43 43 43 42 42 42 43 42 42 41 39 38 38 37 36 35
56 57 57 57 57 56 56 57 57 56 55 54 53 53 53 53 52 51 50 47 46 46 45 44 43 43 43 43 42 42 42 41 40 39 38 37 36 35
56 57 58 58 58 58 58 57 56 56 57 56 55 55 54 54 54 53 52 50 48 47 47 47 46 46 46 44 44 43 42 41 40 39 38 37 36 35
55 57 58 59 59 60 59 59 58 58 58 58 58 58 56 56 56 55 53 52 51 50 49 49 49 48 47 46 45 44 43 41 40 39 38 37 36 35
56 57 59 60 60 61 61 62 62 61 60 60 61 61 59 58 58 57 55 54 53 53 52 51 51 50 49 48 47 46 45 43 42 40 38 37 36 34
56 58 59 61 62 62 63 63 63 63 63 62 62 62 60 59 58 58 57 56 56 55 54 54 53 51 50 49 48 47 46 44 42 40 39 38 36 34
57 58 59 61 63 63 64 64 64 64 64 63 62 61 60 59 58 59 58 57 57 56 56 55 54 53 52 50 49 47 45 43 42 41 39 37 35 34
59 60 60 61 62 63 63 63 64 64 64 63 62 61 61 60 60 60 59 59 58 57 57 56 55 53 52 52 50 48 46 44 42 40 39 37 35 32
61 61 61 61 62 63 64 65 65 65 65 65 64 62 62 61 60 60 60 60 60 59 58 57 55 54 53 52 51 49 46 44 41 39 37 36 34 32
60 61 61 62 63 65 66 67 67 67 67 67 66 63 61 61 62 62 61 60 59 58 58 56 55 54 53 52 50 47 45 43 40 39 37 35 33 32
58 60 60 61 62 63 64 65 66 66 66 66 65 64 63 61 61 61 60 59 58 57 56 55 54 52 51 50 49 47 44 42 40 38 36 34 33 31
57 59 60 61 62 62 62 63 64 64 64 64 63 63 62 61 60 59 58 58 57 57 55 54 52 50 50 48 46 45 43 41 39 37 36 34 33 31
57 58 59 60 61 61 62 62 62 63 63 63 63 61 61 60 59 58 57 56 55 54 52 51 50 49 49 48 45 43 41 40 38 36 35 34 33 32
56 57 58 58 59 60 61 62 62 61 62 61 60 60 59 59 58 57 55 53 52 51 51 50 50 49 48 46 44 43 42 40 38 36 35 34 33 33
53 55 56 57 58 59 59 60 61 60 59 59 58 57 57 57 56 55 54 53 51 50 50 48 48 47 46 45 44 42 40 38 37 36 35 35 34 33
50 51 53 55 56 57 57 58 58 57 56 56 56 55 54 53 53 53 53 51 50 50 49 48 47 46 45 44 43 42 40 38 37 36 36 35 34 33
48 48 49 50 51 52 52 51 51 52 53 54 54 53 53 52 52 52 51 51 50 49 49 48 47 45 44 44 43 41 39 39 38 37 36 35 34 33
48 47 47 46 45 45 45 46 46 47 48 49 50 51 51 51 51 52 51 51 49 49 48 47 46 45 44 43 42 41 40 39 38 38 36 35 33 33
44 43 42 40 40 40 40 40 41 42 43 45 46 47 47 48 48 48 48 48 47 47 47 46 45 44 43 42 41 40 39 38 37 36 36 34 33 33
39 37 36 35 35 35 35 35 37 38 39 41 42 43 43 45 45 46 46 46 45 45 45 45 44 43 43 42 41 40 39 37 36 35 35 34 33 33
34 32 31 30 30 30 30 31 32 33 35 37 39 40 40 41 42 43 44 44 44 43 43 43 43 43 42 42 41 39 38 37 36 36 35 34 33 33
28 27 26 25 25 25 25 26 27 29 31 33 35 36 37 38 39 40 42 42 42 42 43 42 41 40 40 39 39 39 38 37 36 36 35 34 34 34
Wind_Direction
254 255 256 256 256 257 259 260 260 261 261 262 263 264 264 263 263 265 267 268 268 269 270 271 269 269 270 272 276 279 280 282 282 283 284 287 290 293
254 255 257 257 257 259 259 260 261 262 263 264 263 263 263 264 264 265 267 268 266 268 269 270 270 269 270 272 276 278 279 280 280 281 282 285 288 291
255 256 256 256 257 259 259 260 261 262 263 263 261 261 263 264 264 265 266 266 265 266 267 268 268 269 272 273 276 277 278 279 279 280 281 283 286 290
257 257 257 258 258 260 260 261 261 262 263 262 261 261 263 263 264 265 265 263 263 265 265 266 267 268 270 272 274 276 277 278 277 278 278 281 284 287
260 259 259 259 259 259 260 261 261 263 263 262 260 261 262 262 262 264 264 263 263 264 264 266 267 268 269 271 272 273 275 276 275 275 276 279 281 283
262 261 260 261 260 260 260 261 262 263 263 261 261 261 261 262 262 262 263 263 263 264 264 266 266 267 268 269 270 271 272 273 273 273 274 277 279 280
263 262 262 261 260 260 260 261 261 261 261 261 261 260 260 260 260 261 262 261 261 262 263 265 265 265 265 267 268 269 270 270 270 270 272 275 276 277
264 264 263 262 261 260 260 260 260 259 259 260 260 259 259 259 260 260 261 261 262 262 262 263 263 264 264 266 266 267 267 267 266 267 269 272 273 274
266 265 264 264 263 261 259 258 258 258 258 258 259 260 259 259 260 261 261 261 262 262 262 262 262 261 262 263 263 264 265 265 264 264 266 267 269 271
267 267 265 265 263 261 260 259 258 259 259 258 258 258 259 259 259 260 260 260 261 261 260 260 260 259 260 259 260 262 263 261 260 260 261 263 265 267
268 267 266 265 264 263 261 260 260 260 259 258 258 258 258 258 257 257 258 259 258 258 258 258 258 258 258 257 257 258 259 257 257 258 259 260 263 264
269 268 267 266 265 264 263 261 261 260 259 258 258 257 257 258 256 256 256 256 256 256 256 255 256 255 256 255 254 255 254 254 255 255 256 258 260 261
271 269 268 266 265 264 263 262 260 260 259 258 257 257 256 255 255 254 253 254 254 254 254 253 253 252 252 251 250 250 250 251 252 252 252 254 255 257
273 271 269 267 265 264 263 262 261 259 258 256 256 256 254 253 253 252 252 251 252 251 251 250 249 248 248 247 247 247 247 249 249 248 249 251 253 255
275 273 270 268 266 264 263 261 260 258 257 256 254 253 251 251 251 250 249 248 248 248 247 246 245 244 243 243 243 244 245 246 246 246 246 248 251 253
277 274 271 269 267 266 264 262 260 258 256 253 251 249 248 246 246 246 246 245 245 245 243 241 241 241 242 241 241 241 241 242 243 244 244 245 248 251
281 278 273 270 268 266 265 263 260 258 254 250 247 245 244 242 241 242 243 243 242 241 240 239 238 239 239 238 240 239 238 239 240 241 241 242 245 248
283 281 278 274 270 267 264 262 258 255 252 249 246 244 242 240 238 238 239 239 239 237 236 236 236 236 236 235 235 235 237 238 239 239 239 241 244 246
285 282 279 276 271 267 264 259 255 252 249 246 244 242 239 238 237 237 237 237 237 235 233 232 233 234 233 233 233 234 236 236 236 237 238 240 242 244
287 283 280 275 270 266 262 258 253 250 248 245 242 240 238 237 236 235 235 235 235 233 232 233 233 232 230 230 232 231 231 232 232 234 235 237 239 241
289 285 280 276 271 265 260 256 251 247 244 241 237 235 235 235 234 232 230 229 229 229 229 229 229 228 227 228 230 230 229 230 231 233 235 236 238 239
290 286 281 275 271 266 258 253 248 244 241 237 234 232 230 231 230 228 226 225 226 226 226 225 225 225 226 228 228 228 229 230 232 233 234 235 237 239
291 287 283 277 271 264 256 248 243 240 238 235 232 230 229 228 227 224 222 223 224 224 224 223 222 222 223 225 226 227 228 229 231 232 233 234 236 237
Height
5684 5685 5687 5690 5691 5692 5694 5695 5697 5698 5700 5702 5704 5704 5705 5707 5708 5708 5710 5711 5711 5712 5712 5713 5714 5714 5714 5714 5714 5714 5713 5713 5713 5712 5712 5711 5710 5708
5671 5673 5675 5677 5678 5679 5680 5681 5683 5684 5687 5690 5691 5692 5692 5694 5695 5696 5697 5698 5699 5700 5701 5702 5702 5702 5703 5703 5703 5703 5703 5703 5702 5702 5702 5701 5700 5699
5658 5659 5661 5663 5663 5665 5666 5667 5669 5670 5673 5676 5677 5678 5679 5680 5682 5683 5684 5686 5687 5688 5689 5690 5691 5691 5692 5692 5692 5692 5692 5692 5692 5691 5691 5691 5691 5690
5644 5645 5646 5647 5649 5650 5651 5653 5654 5656 5657 5660 5662 5663 5664 5666 5668 5669 5671 5672 5674 5676 5676 5677 5678 5679 5680 5680 5680 5680 5680 5680 5681 5681 5681 5681 5681 5680
5628 5629 5630 5631 5633 5634 5636 5637 5639 5640 5641 5644 5646 5648 5650 5651 5653 5654 5656 5658 5660 5661 5662 5664 5665 5666 5667 5667 5668 5668 5669 5669 5670 5670 5670 5671 5671 5670
5613 5613 5614 5615 5616 5618 5619 5621 5622 5623 5625 5626 5629 5631 5634 5635 5637 5639 5641 5643 5645 5646 5648 5650 5651 5652 5653 5655 5656 5656 5657 5658 5659 5659 5660 5660 5661 5660
5596 5596 5597 5597 5598 5600 5601 5603 5604 5606 5607 5609 5611 5614 5617 5619 5621 5623 5625 5627 5628 5631 5632 5635 5636 5638 5640 5641 5642 5644 5645 5646 5647 5648 5649 5650 5650 5650
5579 5579 5578 5579 5579 5581 5582 5584 5586 5587 5589 5591 5594 5596 5599 5602 5604 5605 5607 5609 5612 5616 5616 5619 5621 5623 5626 5628 5629 5631 5632 5633 5635 5636 5637 5639 5639 5640
5561 5560 5559 5559 5559 5560 5562 5564 5566 5567 5570 5572 5575 5578 5581 5584 5585 5587 5589 5592 5595 5598 5599 5602 5605 5608 5611 5613 5615 5617 5619 5621 5623 5625 5626 5628 5629 5629
5540 5540 5539 5539 5539 5540 5541 5543 5545 5548 5550 5552 5555 5559 5561 5563 5565 5568 5571 5573 5577 5580 5583 5586 5589 5593 5596 5599 5601 5604 5606 5609 5611 5613 5615 5617 5618 5619
5520 5519 5518 5519 5519 5520 5521 5523 5525 5526 5528 5530 5534 5537 5540 5543 5546 5548 5552 5555 5559 5563 5566 5570 5574 5577 5580 5584 5587 5590 5593 5596 5599 5601 5603 5606 5607 5608
5499 5498 5497 5497 5498 5497 5498 5500 5502 5505 5507 5510 5512 5516 5519 5522 5526 5529 5533 5537 5541 5545 5550 5554 5557 5561 5565 5569 5573 5576 5580 5583 5586 5589 5592 5594 5596 5598
5478 5477 5476 5476 5476 5476 5476 5478 5480 5482 5485 5488 5491 5495 5498 5502 5507 5511 5515 5519 5524 5529 5534 5538 5542 5546 5551 5555 5559 5563 5567 5571 5574 5577 5580 5583 5585 5587
5456 5455 5454 5454 5454 5454 5455 5457 5459 5461 5464 5467 5470 5475 5479 5484 5489 5493 5497 5502 5507 5513 5517 5522 5527 5532 5537 5541 5545 5550 5554 5558 5562 5565 5568 5571 5574 5576
5436 5434 5433 5432 5432 5434 5435 5436 5437 5440 5443 5447 5451 5455 5460 5465 5469 5475 5480 5485 5491 5496 5501 5507 5512 5517 5522 5527 5532 5537 5541 5545 5549 5553 5557 5560 5563 5566
5417 5415 5413 5413 5413 5413 5414 5415 5417 5419 5423 5427 5432 5437 5441 5446 5452 5458 5464 5469 5475 5481 5487 5492 5497 5503 5508 5513 5519 5523 5528 5533 5537 5541 5545 5549 5552 5555
5398 5397 5395 5393 5393 5393 5394 5395 5396 5399 5402 5407 5412 5418 5424 5430 5436 5442 5448 5454 5460 5467 5472 5478 5483 5489 5495 5500 5505 5511 5516 5520 5525 5529 5533 5537 5541 5544
5381 5379 5377 5374 5373 5373 5373 5374 5376 5380 5384 5389 5394 5400 5407 5414 5420 5427 5433 5439 5445 5452 5458 5464 5470 5475 5481 5487 5493 5498 5504 5509 5513 5518 5522 5526 5530 5533
5365 5362 5359 5357 5355 5355 5355 5357 5360 5363 5367 5372 5378 5384 5391 5398 5404 5411 5418 5424 5431 5438 5444 5450 5456 5463 5469 5476 5481 5487 5492 5497 5502 5507 5511 5515 5519 5523
5349 5346 5343 5341 5340 5340 5341 5342 5345 5349 5353 5358 5363 5370 5376 5383 5390 5397 5404 5411 5417 5424 5431 5437 5444 5451 5458 5464 5470 5475 5480 5486 5491 5496 5500 5505 5509 5512
5336 5332 5329 5327 5326 5326 5327 5329 5332 5336 5340 5345 5351 5357 5363 5370 5377 5384 5391 5398 5405 5412 5419 5426 5433 5439 5446 5452 5458 5464 5470 5475 5480 5485 5490 5494 5498 5502
5324 5321 5318 5316 5315 5315 5316 5318 5321 5325 5329 5333 5339 5345 5352 5359 5365 5372 5379 5387 5394 5401 5408 5415 5422 5429 5435 5442 5448 5454 5460 5465 5470 5475 5480 5484 5488 5492
5314 5311 5309 5307 5306 5306 5307 5309 5312 5316 5320 5324 5329 5335 5342 5349 5355 5362 5369 5376 5384 5391 5398 5405 5412 5419 5425 5432 5438 5444 5450 5455 5460 5465 5470 5474 5479 5483